Weather History for Westerly, RI

Change the Weather History Date:

Tuesday, January 21, 2014

  Actual Average (KGON) Record (KGON)
Temperature  
Mean Temperature 20 °F -  
Max Temperature 27 °F 36 °F 55 °F (2006)
Min Temperature 12 °F 17 °F -7 °F (1961)
Degree Days  
Heating Degree Days 46    
Moisture  
Dew Point 9 °F    
Average Humidity 73    
Maximum Humidity 88    
Minimum Humidity 42    
Precipitation  
Precipitation 0.08 in - - ()
Sea Level Pressure  
Sea Level Pressure 29.92 in    
Wind  
Wind Speed 10 mph (North)    
Max Wind Speed 17 mph    
Max Gust Speed 25 mph    
Visibility 3 miles    
Events Fog , Snow    
Averages and records for this station are not official NWS values.
T = Trace of Precipitation, MM = Missing Value Source: NWS Daily Summary

Daily Weather History Graph

Daily Weather History Graph

Search for Another Location

Airport:

Trip Planner

Search our weather history database for the weather conditions in past years. The results will help you decide how hot, cold, wet, or windy it might be!

Date:

Astronomy

Jan. 21, 2014 Rise Set
Actual Time 7:07 AM EST 4:49 PM EST
Civil Twilight 6:37 AM EST 5:19 PM EST
Nautical Twilight 6:03 AM EST 5:53 PM EST
Astronomical Twilight 5:31 AM EST 6:26 PM EST
Moon 10:24 PM EST (1/21) 9:32 AM EST (1/21)
Length of Visible Light 10h 42m
Length of Day
9h 42m
Waning Gibbous, 75% of the Moon is Illuminated
Jan 21
Waning Gibbous
Jan 24
Last Quarter
Jan 30
New
Feb 6
First Quarter
Feb 14
Full

Hourly Weather History & Observations

Time (EST) Temp. Windchill Dew Point Humidity Pressure Visibility Wind Dir Wind Speed Gust Speed Precip Events Conditions
12:53 AM 27.0 °F 17.3 °F 9.0 °F 47% 29.91 in 10.0 mi NNW 10.4 mph - N/A   Scattered Clouds
1:53 AM 26.1 °F 19.4 °F 8.1 °F 47% 29.94 in 10.0 mi NW 5.8 mph - N/A   Clear
2:53 AM 24.1 °F 13.1 °F 7.0 °F 48% 29.96 in 10.0 mi NNW 11.5 mph - N/A   Clear
3:53 AM 23.0 °F 11.7 °F 7.0 °F 50% 29.96 in 10.0 mi NNW 11.5 mph - N/A   Clear
4:53 AM 21.9 °F 10.4 °F 5.0 °F 48% 29.98 in 10.0 mi North 11.5 mph - N/A   Clear
5:53 AM 21.0 °F 9.9 °F 3.0 °F 46% 30.01 in 10.0 mi NNW 10.4 mph - N/A   Clear
6:53 AM 21.0 °F 16.2 °F 3.9 °F 48% 30.02 in 10.0 mi North 3.5 mph - N/A   Clear
7:53 AM 21.0 °F 10.6 °F 3.0 °F 46% 30.01 in 10.0 mi North 9.2 mph - N/A   Overcast
8:53 AM 21.0 °F 9.3 °F 3.9 °F 48% 30.01 in 10.0 mi North 11.5 mph - N/A   Overcast
9:53 AM 21.0 °F 14.6 °F 1.0 °F 42% 30.03 in 10.0 mi NNE 4.6 mph - N/A   Overcast
10:53 AM 19.9 °F 13.4 °F 6.1 °F 55% 30.03 in 5.0 mi NE 4.6 mph - N/A Snow Light Snow
11:53 AM 19.9 °F 9.3 °F 8.1 °F 60% 30.01 in 2.5 mi North 9.2 mph - N/A Snow Light Snow
12:16 PM 19.0 °F 8.2 °F 10.0 °F 68% 30.00 in 2.5 mi North 9.2 mph - N/A Snow Light Snow
12:24 PM 19.0 °F 9.0 °F 10.9 °F 71% 30.00 in 1.0 mi NNE 8.1 mph - N/A Snow Light Snow
12:32 PM 19.0 °F 9.0 °F 12.0 °F 74% 30.00 in 0.8 mi NNE 8.1 mph - N/A Snow Light Snow
12:53 PM 18.0 °F 7.7 °F 12.9 °F 81% 29.99 in 0.5 mi North 8.1 mph - N/A Snow Snow
1:22 PM 18.0 °F 8.7 °F 12.9 °F 81% 29.96 in 0.5 mi NNE 6.9 mph - N/A Snow Snow
1:53 PM 18.0 °F 7.7 °F 12.9 °F 81% 29.94 in 0.5 mi North 8.1 mph - N/A Snow Snow
2:31 PM 18.0 °F 6.1 °F 14.0 °F 84% 29.89 in 0.2 mi NNE 10.4 mph 19.6 mph 0.01 in Fog , Snow Snow
2:53 PM 17.1 °F 3.6 °F 14.0 °F 88% 29.88 in 0.5 mi North 12.7 mph - 0.02 in Fog , Snow Snow
3:12 PM 17.1 °F 3.6 °F 12.0 °F 81% 29.89 in 0.8 mi North 12.7 mph 21.9 mph 0.00 in Snow Light Snow
3:36 PM 16.0 °F 2.9 °F 12.0 °F 84% 29.88 in 0.5 mi North 11.5 mph 20.7 mph 0.00 in Fog , Snow Snow
3:53 PM 16.0 °F 0.1 °F 10.9 °F 81% 29.90 in 0.5 mi NNE 17.3 mph 23.0 mph 0.01 in Snow Snow
4:12 PM 16.0 °F 5.3 °F 10.9 °F 81% 29.91 in 1.0 mi North 8.1 mph 17.3 mph 0.00 in Snow Light Snow
4:21 PM 15.1 °F 0.5 °F 10.9 °F 84% 29.91 in 0.8 mi NNE 13.8 mph 20.7 mph 0.00 in Snow Light Snow
4:29 PM 15.1 °F 1.1 °F 10.9 °F 84% 29.91 in 0.8 mi NNE 12.7 mph 20.7 mph 0.00 in Snow Light Snow
4:39 PM 15.1 °F 2.5 °F 10.9 °F 84% 29.91 in 0.8 mi NNE 10.4 mph - 0.00 in Snow Light Snow
4:53 PM 15.1 °F 6.4 °F 10.9 °F 84% 29.92 in 0.8 mi Variable 5.8 mph - 0.01 in Snow Light Snow
5:11 PM 15.1 °F 4.2 °F 12.0 °F 88% 29.92 in 0.5 mi North 8.1 mph - 0.01 in Fog , Snow Snow
5:18 PM 15.1 °F 1.8 °F 10.9 °F 84% 29.92 in 0.8 mi North 11.5 mph - 0.01 in Snow Light Snow
5:53 PM 14.0 °F 1.2 °F 9.0 °F 80% 29.91 in 0.8 mi NNE 10.4 mph 18.4 mph 0.02 in Snow Light Snow
6:04 PM 14.0 °F 1.2 °F 9.0 °F 80% 29.91 in 1.0 mi NNE 10.4 mph 23.0 mph 0.01 in Snow Light Snow
6:49 PM 12.2 °F -1.8 °F 8.6 °F 85% 29.93 in 2.0 mi North 11.5 mph - 0.01 in Snow Light Snow
6:53 PM 12.9 °F -0.9 °F 8.1 °F 81% 29.93 in 2.0 mi North 11.5 mph - 0.01 in Snow Light Snow
7:03 PM 12.9 °F 1.6 °F 8.1 °F 81% 29.92 in 1.5 mi North 8.1 mph 18.4 mph 0.00 in Snow Light Snow
7:35 PM 12.9 °F -0.9 °F 8.1 °F 81% 29.89 in 1.8 mi North 11.5 mph 21.9 mph 0.00 in Snow Light Snow
7:43 PM 12.9 °F -2.2 °F 9.0 °F 84% 29.88 in 2.5 mi North 13.8 mph - 0.00 in Snow Light Snow
7:53 PM 12.9 °F -0.9 °F 8.1 °F 81% 29.89 in 2.5 mi North 11.5 mph 20.7 mph 0.00 in Snow Light Snow
8:00 PM 12.9 °F -0.2 °F 8.1 °F 81% 29.89 in 3.0 mi North 10.4 mph 21.9 mph 0.01 in Snow Light Snow
8:10 PM 12.9 °F -2.8 °F 8.1 °F 81% 29.89 in 2.5 mi North 15.0 mph 20.7 mph 0.01 in Snow Light Snow
8:24 PM 12.9 °F -1.6 °F 8.1 °F 81% 29.90 in 3.0 mi North 12.7 mph 19.6 mph 0.01 in Snow Light Snow
8:40 PM 12.9 °F -2.2 °F 8.1 °F 81% 29.89 in 2.5 mi North 13.8 mph - 0.01 in Snow Light Snow
8:53 PM 12.9 °F -3.4 °F 8.1 °F 81% 29.88 in 2.5 mi North 16.1 mph - 0.01 in Snow Light Snow
9:03 PM 12.9 °F -1.6 °F 8.1 °F 81% 29.87 in 3.0 mi North 12.7 mph - 0.00 in Snow Light Snow
9:53 PM 12.9 °F -2.8 °F 8.1 °F 81% 29.86 in 4.0 mi North 15.0 mph 25.3 mph 0.00 in Snow Light Snow
10:53 PM 12.9 °F -2.2 °F 8.1 °F 81% 29.83 in 2.5 mi North 13.8 mph - 0.00 in Snow Light Snow
11:04 PM 12.9 °F -2.2 °F 8.1 °F 81% 29.82 in 3.0 mi North 13.8 mph 20.7 mph 0.00 in Snow Light Snow
11:16 PM 12.9 °F -2.8 °F 8.1 °F 81% 29.81 in 2.5 mi North 15.0 mph 24.2 mph 0.00 in Snow Light Snow
11:25 PM 12.9 °F -2.8 °F 8.1 °F 81% 29.81 in 3.0 mi North 15.0 mph 24.2 mph 0.00 in Snow Light Snow
11:53 PM 12.9 °F -2.8 °F 7.0 °F 77% 29.78 in 4.0 mi North 15.0 mph - 0.00 in Snow Light Snow